Dr. Bill's Marine Weather

Coastal Marine Forecast

       Alabama   Florida   Louisiana   Mississippi

Printer Friendly AL  FL  LA  MS

Data Buoys:   Western Gulf of Mexico    Eastern Gulf of Mexico
**********************************************************************
  Alabama
1100 PM CDT FRI MAY 29 2015

ALZ051>064-300500-
SOUTHWEST ALABAMA
  
CITY           SKY/WX    TMP DP  RH WIND       PRES   REMARKS
MOBILE         PTCLDY    74  71  91 SE6       30.09S                  
BROOKLEY FIELD PTCLDY    78  72  81 SE12      30.10S                  
EVERGREEN      CLEAR     71  70  96 CALM      30.11F                  
**********************************************************************
  Florida
1200 AM EDT SAT MAY 30 2015

FLZ001>010-012>015-112-114-115-300500-
PANHANDLE FLORIDA
  
CITY           SKY/WX    TMP DP  RH WIND       PRES   REMARKS
PENSACOLA      CLEAR     75  67  76 SE6       30.08F                  
PENSACOLA NAS  CLEAR     77  68  73 SE7       30.08F                  
MILTON NAS     CLEAR     71  69  93 CALM      30.10                   
CRESTVIEW      CLEAR     69  68  96 CALM      30.12S                  
DUKE FIELD     PTCLDY    69  67  95 N2        30.09S                  
VALPARAISO     PTCLDY    77  66  68 N1        30.09F                  
MARY ESTHER    CLEAR     73  66  78 N1        30.08S                  
TRI COUNTY     FAIR      70  68  93 CALM      30.11S                  
PANAMA CITY    FAIR      71  67  87 N3        30.08F                  
TYNDALL AFB    CLEAR     69  65  87 NE2       30.09S                  
APALACHICOLA   CLEAR     71  63  75 CALM      30.08F                  

STATION/POSITION SKY/WX   TEMP    WIND        PRES    WAVE   SWELL
                          AIR SEA DIR/SP/G            HT/PER HT/PER
                          (F)     (DEG/KT/KT) (MB)    (FT/S) (FT/S)
30.1N   87.6W              80 80  140/ 10/ 12 1017.7F   2/ 5   2/ 5
29.2N   88.2W              79 80  120/ 12/ 14 1018.3F   3/ 5   2/ 6
28.8N   86.0W              78 81  120/ 10/ 12 1018.7F   3/ 6   2/ 6
PANAMA CITY BEAC           80 82  110/  5/  8 1018.8R
CAPE SAN BLAS    NOT AVBL
TOWER C                    78     320/  1/  1 1018.6F
28.5N   84.5W              80 81  360/  6/  8 1018.5F   2/ 5   2/ 5

**********************************************************************
  Louisiana
1100 PM CDT FRI MAY 29 2015

LAZ040-048-061>063-065-066-069-300500-
SOUTHEAST LOUISIANA
  
CITY           SKY/WX    TMP DP  RH WIND       PRES   REMARKS
N.O. AUDUBON     N/A     78  73  84 MISG        N/A                   
N.O. INTL ARPT PTCLDY    77  69  76 SE7       30.05R                  
N.O. LAKEFRONT CLEAR     80  71  74 SE6       30.06R                  
SLIDELL        CLEAR     76  73  91 SE3       30.05S                  
BATON ROUGE    MOCLDY    74  71  91 NE3       30.06R                  
BOOTHVILLE     CLEAR     78  73  84 CALM      30.07R                  
BELLE CHASSE   PTCLDY    76  70  82 SE5       30.05R                  
BOGALUSA*        N/A     75  70  83 SE3       30.08R                  
GALLIANO*      PTCLDY    78  71  78 CALM      30.05S                  
NEW ROADS*     FAIR      75  71  88 SE5       30.05F                  
GONZALES*      FAIR      74  74 100 CALM      30.04S                  
HAMMOND*       PTCLDY    75  68  78 CALM      30.08R                  
HOUMA*         MOCLDY    75  70  85 E3        30.04S                  
PORT FOURCHON* MOCLDY    81  70  69 SE9       30.05S                  

**********************************************************************
  Mississippi
1100 PM CDT FRI MAY 29 2015

MSZ080>082-300500-
COASTAL MISSISSIPPI
  
CITY           SKY/WX    TMP DP  RH WIND       PRES   REMARKS
BILOXI         PTCLDY    80  71  75 S10       30.06S                  
PASCAGOULA     CLEAR     71  69  93 CALM      30.08R                  
GULFPORT       PTCLDY    80  71  74 SE10      30.06S                  
About Us | Coastal Marine Forecast | Offshore Marine Forecast
Gulf Coast Tides | Hourly Weather Observations | Weather Radar
Sea Surface Temperatures | Solar/Lunar Data | Hurricane Advisories | Home
     
USA Logo Dr. Bill's Marine Weather
Last date changed: December 9, 2014 4:08 PM
www.gulfmarineweather.com/hourlyweatherobservations.shtml
Contact Us